Find Kosmos-1704

NORAD ID: 16291 Int'l Des: 1985-110 Owner: VMF Country: SU operational
LEOCIRCULARPOLAR

Live-Position

3D-Globus wird geladen...

Über Kosmos-1704

Beschreibung wird geladen...

Nächste Überflüge

Passes for default location (London). Set your location on the main map for personalized predictions.

Höhenverlauf

Loading altitude history...

Zweizeiliger Elementsatz

1 16291U 85110A 26104.45859786 .00000043 00000-0 29697-4 0 9993
2 16291 82.9379 171.9891 0029716 233.6505 137.1728 13.74884592 25179
Epoch: 14. Apr. 2026 • Age: 11 hours

Aktueller Status

Höhe 992.3 km
Geschwindigkeit 7.36 km/s
Subsatellitenpunkt 45.91°N, 169.99°E
Startdatum 28. Nov. 1985
Alter 40.3 years
Typ other

Technische Details

Klassifizierung Payload
Masse 800.00 kg
Trockenmasse 800.00 kg
Gesamtmasse 800.00 kg
Länge 5.00 m
Durchmesser 2.10 m
Spannweite 17.00 m
Form Cyl + Ant
Hersteller OAZ
Bus-Typ KAUR-1 11F627
Phasenstatus In Orbit
Besitzer/Staat VMF/SU

Most Searched